Oxford, NC

7:57 PM EDT on May 24, 2018 (GMT -0400)
Henderson-Oxford

Weather History for KHNZ - April, 2013

Change the Weather History Date:

Sunday, April 28, 2013

  Actual Average (KTDF) Record (KTDF)
Temperature  
Mean Temperature 56 °F -  
Max Temperature 60 °F 72 °F 91 °F (1990)
Min Temperature 52 °F 47 °F 28 °F (1993)
Degree Days  
Heating Degree Days 9    
Growing Degree Days 6 (Base 50)    
Moisture  
Dew Point 46 °F    
Average Humidity 67    
Maximum Humidity 91    
Minimum Humidity 52    
Precipitation  
Precipitation 0.12 in - - ()
Sea Level Pressure  
Sea Level Pressure 30.21 in    
Wind  
Wind Speed 5 mph (SE)    
Max Wind Speed 9 mph    
Max Gust Speed 10 mph    
Visibility 10 miles    
Events Rain    
Averages and records for this station are not official NWS values.
T = Trace of Precipitation, MM = Missing Value Source: NWS Daily Summary

Daily Weather History Graph

Daily Weather History Graph

Search for Another Location

Airport or City:

Astronomy

Apr. 28, 2013 Rise Set
Actual Time 6:24 AM EDT 7:59 PM EDT
Civil Twilight 5:56 AM EDT 8:27 PM EDT
Nautical Twilight 5:23 AM EDT 9:00 PM EDT
Astronomical Twilight 4:48 AM EDT 9:35 PM EDT
Moon 11:25 PM EDT (4/28) 8:41 AM EDT (4/28)
Length of Visible Light 14h 30m
Length of Day
13h 35m
Waning Gibbous, 89% of the Moon is Illuminated
Apr 28
Waning Gibbous
May 2
Last Quarter
May 9
New
May 18
First Quarter
May 25
Full

Hourly Weather History & Observations

Time (EDT) Temp. Dew Point Humidity Pressure Visibility Wind Dir Wind Speed Gust Speed Precip Events Conditions
12:15 AM 59.2 °F 45.3 °F 60% 30.28 in 10.0 mi ESE 5.8 mph - N/A   Scattered Clouds
12:35 AM 59.9 °F 43.7 °F 55% 30.27 in 10.0 mi SSE 6.9 mph - N/A   Clear
12:55 AM 59.5 °F 43.3 °F 55% 30.28 in 10.0 mi SE 4.6 mph - N/A   Scattered Clouds
1:15 AM 59.4 °F 42.3 °F 53% 30.28 in 10.0 mi SE 5.8 mph - N/A   Mostly Cloudy
1:35 AM 59.0 °F 41.7 °F 53% 30.27 in 10.0 mi SE 6.9 mph - N/A   Overcast
1:55 AM 58.5 °F 41.0 °F 52% 30.27 in 10.0 mi SE 8.1 mph - N/A   Overcast
2:15 AM 57.9 °F 41.0 °F 53% 30.25 in 10.0 mi SSE 5.8 mph - N/A   Overcast
2:35 AM 57.6 °F 40.5 °F 53% 30.26 in 10.0 mi SSE 5.8 mph - N/A   Overcast
2:55 AM 57.2 °F 40.1 °F 53% 30.25 in 10.0 mi SSE 6.9 mph - N/A   Overcast
3:15 AM 56.8 °F 39.7 °F 53% 30.25 in 10.0 mi SSE 5.8 mph - N/A   Overcast
3:35 AM 56.5 °F 39.4 °F 53% 30.24 in 10.0 mi SSE 5.8 mph - N/A   Overcast
3:55 AM 56.3 °F 39.4 °F 53% 30.24 in 10.0 mi SSE 6.9 mph - N/A   Overcast
4:15 AM 56.3 °F 39.6 °F 53% 30.24 in 10.0 mi South 5.8 mph - N/A   Mostly Cloudy
4:35 AM 55.8 °F 39.4 °F 54% 30.24 in 10.0 mi South 5.8 mph - N/A   Overcast
4:55 AM 55.8 °F 38.8 °F 53% 30.24 in 10.0 mi South 4.6 mph - N/A   Overcast
5:15 AM 55.6 °F 38.5 °F 53% 30.24 in 10.0 mi SSE 3.5 mph - N/A   Overcast
5:35 AM 55.4 °F 39.0 °F 54% 30.24 in 10.0 mi South 4.6 mph - N/A   Overcast
5:55 AM 55.0 °F 39.4 °F 56% 30.24 in 10.0 mi SSE 3.5 mph - N/A   Overcast
6:15 AM 54.9 °F 40.3 °F 58% 30.25 in 10.0 mi Calm Calm - N/A   Overcast
6:35 AM 54.5 °F 41.0 °F 60% 30.25 in 10.0 mi SSE 3.5 mph - N/A   Overcast
6:55 AM 54.5 °F 41.5 °F 62% 30.26 in 10.0 mi Calm Calm - N/A   Overcast
7:15 AM 54.5 °F 42.1 °F 63% 30.26 in 10.0 mi SE 3.5 mph - N/A   Overcast
7:35 AM 54.5 °F 43.2 °F 66% 30.26 in 10.0 mi SE 3.5 mph - N/A   Overcast
7:55 AM 54.5 °F 43.7 °F 67% 30.26 in 10.0 mi SSE 3.5 mph - N/A   Overcast
8:15 AM 54.5 °F 44.1 °F 68% 30.26 in 10.0 mi SSE 3.5 mph - N/A   Overcast
8:35 AM 54.9 °F 44.8 °F 69% 30.27 in 10.0 mi South 3.5 mph - N/A   Mostly Cloudy
8:55 AM 55.4 °F 45.3 °F 69% 30.27 in 10.0 mi South 4.6 mph - N/A   Mostly Cloudy
9:15 AM 55.4 °F 45.3 °F 69% 30.26 in 10.0 mi SSE 4.6 mph - N/A   Overcast
9:35 AM 55.8 °F 43.9 °F 64% 30.25 in 10.0 mi SE 4.6 mph - N/A   Overcast
9:55 AM 56.3 °F 44.2 °F 64% 30.26 in 10.0 mi SSE 3.5 mph - N/A   Overcast
10:15 AM 56.7 °F 43.2 °F 61% 30.26 in 10.0 mi SSE 3.5 mph - N/A   Overcast
10:35 AM 57.2 °F 43.7 °F 61% 30.26 in 10.0 mi SE 3.5 mph - N/A   Overcast
10:55 AM 57.6 °F 43.3 °F 59% 30.26 in 10.0 mi SE 6.9 mph - N/A   Overcast
11:15 AM 58.1 °F 43.5 °F 58% 30.26 in 10.0 mi ESE 4.6 mph - N/A   Overcast
11:35 AM 58.5 °F 43.0 °F 56% 30.26 in 10.0 mi SE 3.5 mph - N/A   Overcast
11:55 AM 58.8 °F 42.8 °F 55% 30.26 in 10.0 mi Calm Calm - N/A   Overcast
12:15 PM 59.0 °F 42.3 °F 54% 30.25 in 10.0 mi SE 3.5 mph - N/A   Overcast
12:35 PM 59.0 °F 42.8 °F 55% 30.25 in 10.0 mi ESE 3.5 mph - N/A   Overcast
12:55 PM 59.2 °F 43.0 °F 55% 30.25 in 10.0 mi Calm Calm - N/A Rain Light Rain
1:15 PM 59.9 °F 45.1 °F 58% 30.25 in 10.0 mi Calm Calm - N/A Rain Light Rain
1:35 PM 59.4 °F 48.4 °F 67% 30.24 in 10.0 mi East 3.5 mph - N/A Rain Light Rain
1:55 PM 59.0 °F 48.9 °F 69% 30.23 in 10.0 mi East 4.6 mph - N/A Rain Light Rain
2:15 PM 59.5 °F 50.4 °F 72% 30.23 in 10.0 mi East 3.5 mph - 0.01 in Rain Light Rain
2:35 PM 60.1 °F 50.4 °F 70% 30.22 in 10.0 mi East 3.5 mph - 0.01 in   Mostly Cloudy
2:55 PM 59.9 °F 49.5 °F 68% 30.22 in 10.0 mi ESE 4.6 mph - 0.01 in   Mostly Cloudy
3:15 PM 59.9 °F 50.2 °F 70% 30.20 in 10.0 mi East 4.6 mph - N/A   Overcast
3:35 PM 59.9 °F 51.1 °F 73% 30.19 in 10.0 mi ENE 4.6 mph - N/A   Overcast
3:55 PM 59.9 °F 51.8 °F 75% 30.19 in 10.0 mi NE 3.5 mph - N/A   Overcast
4:15 PM 59.7 °F 52.3 °F 77% 30.19 in 10.0 mi Calm Calm - N/A Rain Light Rain
4:35 PM 59.0 °F 53.6 °F 82% 30.19 in 7.0 mi North 4.6 mph - 0.01 in Rain Light Rain
4:55 PM 58.8 °F 53.1 °F 81% 30.17 in 10.0 mi NE 4.6 mph - 0.01 in Rain Light Rain
5:15 PM 58.5 °F 52.7 °F 81% 30.16 in 10.0 mi ENE 6.9 mph - 0.01 in Rain Light Rain
5:35 PM 58.1 °F 52.2 °F 81% 30.16 in 10.0 mi ENE 9.2 mph - 0.01 in Rain Light Rain
5:55 PM 57.9 °F 52.2 °F 81% 30.15 in 10.0 mi ENE 8.1 mph - 0.01 in   Light Drizzle
6:15 PM 57.6 °F 51.6 °F 81% 30.15 in 10.0 mi ENE 5.8 mph - N/A Rain Light Rain
6:35 PM 57.0 °F 51.4 °F 82% 30.15 in 10.0 mi NE 3.5 mph - N/A   Light Drizzle
6:55 PM 56.8 °F 51.3 °F 82% 30.14 in 10.0 mi East 3.5 mph - N/A   Light Drizzle
7:15 PM 56.7 °F 51.1 °F 82% 30.13 in 10.0 mi ENE 4.6 mph - N/A   Overcast
7:35 PM 56.3 °F 50.9 °F 82% 30.13 in 10.0 mi East 4.6 mph - N/A Rain Light Rain
7:55 PM 55.9 °F 49.8 °F 80% 30.13 in 10.0 mi East 5.8 mph - N/A   Light Drizzle
8:15 PM 55.8 °F 48.7 °F 77% 30.13 in 10.0 mi East 4.6 mph - N/A   Mostly Cloudy
8:35 PM 55.6 °F 48.4 °F 77% 30.13 in 10.0 mi ESE 6.9 mph - N/A   Overcast
8:55 PM 55.0 °F 48.2 °F 78% 30.13 in 10.0 mi East 5.8 mph - N/A Rain Light Rain
9:15 PM 54.9 °F 47.7 °F 77% 30.14 in 10.0 mi SE 3.5 mph - N/A Rain Rain
9:35 PM 54.5 °F 47.7 °F 78% 30.15 in 10.0 mi Calm Calm - 0.01 in Rain Light Rain
9:55 PM 53.6 °F 48.6 °F 83% 30.14 in 7.0 mi SE 4.6 mph - 0.03 in Rain Light Rain
10:15 PM 52.9 °F 49.1 °F 87% 30.14 in 7.0 mi SE 6.9 mph - 0.02 in Rain Rain
10:55 PM 53.1 °F 49.1 °F 86% 30.13 in 10.0 mi SSE 6.9 mph - 0.03 in   Drizzle
11:15 PM 53.1 °F 50.0 °F 89% 30.12 in 7.0 mi SSE 6.9 mph 10.4 mph 0.01 in Rain Light Rain
11:35 PM 53.1 °F 50.2 °F 90% 30.12 in 7.0 mi SSE 6.9 mph - 0.02 in Rain Light Rain
11:55 PM 53.2 °F 50.7 °F 91% 30.11 in 7.0 mi SE 5.8 mph - 0.03 in Rain Light Rain